Location: Limerick
(52.6650°N, 8.6230°W)
Time: 20:39:10
(UTC+01:00)

ISS - Pass Details

Date: 23 May 2017
Orbit: 402 x 409 km, 51.6° (Epoch: 25 May)

Event Time Altitude Azimuth Distance (km) Brightness Sun altitude
Exits shadow 00:15:10 25° 116° (ESE) 877 -2.5 -14.9°
Drops below altitude 10° 00:17:02 10° 89° (E) 1,469 -1.2 -15.0°
Sets 00:19:15 0° 79° (E) 2,330 0.0 -15.1°
